Weather History for PASI - November, 2011

Change the Weather History Date:

Sunday, November 13, 2011

  Actual Average Record
Temperature  
Mean Temperature 36 °F -  
Max Temperature 41 °F 44 °F 58 °F (1976)
Min Temperature 32 °F 36 °F 20 °F (1955)
Degree Days  
Heating Degree Days 28    
Moisture  
Dew Point 31 °F    
Average Humidity 84    
Maximum Humidity 100    
Minimum Humidity 62    
Precipitation  
Precipitation 0.67 in - - ()
Sea Level Pressure  
Sea Level Pressure 29.42 in    
Wind  
Wind Speed 20 mph (WNW)    
Max Wind Speed 33 mph    
Max Gust Speed 48 mph    
Visibility 5 miles    
Events Fog , Rain , Snow    
Averages and records for this station are not official NWS values.
T = Trace of Precipitation, MM = Missing Value Source: NWS Daily Summary

Daily Weather History Graph

Daily Weather History Graph

Search for Another Location

Airport or City:

Trip Planner

Search our weather history database for the weather conditions in past years. The results will help you decide how hot, cold, wet, or windy it might be!

Date:

Astronomy

Nov. 13, 2011 Rise Set
Actual Time 7:38 AM AKST 3:52 PM AKST
Civil Twilight 6:55 AM AKST 4:35 PM AKST
Nautical Twilight 6:08 AM AKST 5:22 PM AKST
Astronomical Twilight 5:23 AM AKST 6:07 PM AKST
Moon 5:44 PM AKST (11/13) 10:42 AM AKST (11/13)
Length of Visible Light 9h 40m
Length of Day
8h 13m
Waning Gibbous, 92% of the Moon is Illuminated
Nov 13
Waning Gibbous
Nov 18
Last Quarter
Nov 24
New
Dec 2
First Quarter
Dec 10
Full

Hourly Weather History & Observations

Time (AKST) Temp. Windchill Dew Point Humidity Pressure Visibility Wind Dir Wind Speed Gust Speed Precip Events Conditions
12:53 AM 41.0 °F 30.2 °F 34.0 °F 76% 29.24 in 8.0 mi West 27.6 mph 38.0 mph 0.00 in Rain Light Rain
1:45 AM 37.4 °F 27.2 °F 33.8 °F 87% 29.24 in 3.0 mi WNW 19.6 mph 34.5 mph 0.05 in Rain Small Hail
1:53 AM 37.9 °F 28.9 °F 35.1 °F 89% 29.24 in 9.0 mi NW 16.1 mph - 0.05 in Rain Light Hail
2:06 AM 39.2 °F 30.5 °F 35.6 °F 87% 29.24 in 10.0 mi West 16.1 mph 21.9 mph 0.00 in   Overcast
3:53 AM 37.9 °F 25.7 °F 33.1 °F 83% 29.27 in 9.0 mi West 29.9 mph 46.0 mph 0.04 in Rain Light Rain
4:53 AM 39.9 °F 30.8 °F 33.1 °F 77% 29.29 in 10.0 mi West 18.4 mph 27.6 mph 0.00 in   Mostly Cloudy
5:53 AM 39.9 °F 29.7 °F 30.9 °F 70% 29.30 in 10.0 mi West 23.0 mph 35.7 mph 0.00 in   Overcast
6:51 AM 37.4 °F 27.5 °F 33.8 °F 87% 29.30 in 5.0 mi West 18.4 mph 35.7 mph 0.03 in Rain Rain
6:53 AM 37.9 °F 27.9 °F 33.1 °F 83% 29.30 in 5.0 mi West 19.6 mph 31.1 mph 0.03 in Rain Small Hail
7:05 AM 39.2 °F 29.6 °F 33.8 °F 81% 29.30 in 7.0 mi West 19.6 mph 28.8 mph 0.01 in Rain Light Rain
7:53 AM 39.9 °F 29.7 °F 30.0 °F 68% 29.32 in 7.0 mi WNW 23.0 mph 33.4 mph 0.01 in   Overcast
8:29 AM 37.4 °F 25.6 °F 33.8 °F 87% 29.35 in 3.0 mi West 26.5 mph 40.3 mph 0.04 in Rain Heavy Rain
8:53 AM 36.0 °F 23.9 °F 32.0 °F 86% 29.35 in 5.0 mi West 25.3 mph 33.4 mph 0.04 in Rain Rain
9:53 AM 37.9 °F 26.8 °F 30.9 °F 76% 29.37 in 6.0 mi West 24.2 mph 33.4 mph 0.01 in Rain Light Rain
10:02 AM 37.4 °F 26.6 °F 30.2 °F 75% 29.38 in 6.0 mi WNW 21.9 mph 33.4 mph 0.01 in Rain Small Hail
10:09 AM 37.4 °F 27.8 °F 30.2 °F 75% 29.38 in 6.0 mi WNW 17.3 mph - 0.01 in Rain Light Rain
10:53 AM 37.9 °F 26.6 °F 28.9 °F 70% 29.39 in 8.0 mi WNW 25.3 mph - 0.02 in Rain Light Rain
11:53 AM 37.0 °F 23.9 °F 28.9 °F 73% 29.41 in 4.0 mi WNW 33.4 mph 41.4 mph 0.01 in Rain Rain
12:53 PM 37.0 °F 27.0 °F 28.0 °F 70% 29.42 in 9.0 mi West 18.4 mph 28.8 mph 0.00 in   Mostly Cloudy
1:40 PM 35.6 °F 22.7 °F 28.4 °F 75% 29.41 in 4.0 mi WSW 28.8 mph 38.0 mph 0.01 in   Ice Pellets
1:53 PM 36.0 °F 25.6 °F 28.9 °F 76% 29.42 in 8.0 mi WSW 18.4 mph 27.6 mph 0.01 in Rain Light Rain
2:21 PM 35.6 °F 23.4 °F 30.2 °F 81% 29.42 in 2.0 mi West 25.3 mph 36.8 mph 0.02 in Rain Light Rain
2:26 PM 33.8 °F 23.5 °F 30.2 °F 87% 29.42 in 0.8 mi West 16.1 mph 36.8 mph 0.03 in Snow Light Snow
2:41 PM 33.8 °F 23.9 °F 30.2 °F 87% 29.43 in 0.2 mi West 15.0 mph - 0.05 in Fog , Snow Snow
2:47 PM 33.8 °F 23.2 °F 32.0 °F 93% 29.43 in 1.0 mi West 17.3 mph 23.0 mph 0.08 in Snow Light Snow
2:53 PM 33.1 °F 18.7 °F 32.0 °F 96% 29.43 in 0.5 mi West 32.2 mph 48.3 mph 0.11 in Fog , Snow Snow
3:11 PM 33.8 °F 21.6 °F 33.8 °F 100% 29.43 in 5.0 mi WNW 23.0 mph 36.8 mph 0.02 in Snow Light Snow
3:42 PM 33.8 °F 23.5 °F 33.8 °F 100% 29.44 in 1.2 mi NW 16.1 mph - 0.05 in Snow Light Snow
3:53 PM 33.1 °F 25.5 °F 32.0 °F 96% 29.44 in 6.0 mi NNW 9.2 mph - 0.06 in Snow Light Snow
4:06 PM 33.8 °F 27.7 °F 32.0 °F 93% 29.43 in 8.0 mi North 6.9 mph - 0.00 in   Mostly Cloudy
4:53 PM 37.0 °F 27.7 °F 26.1 °F 65% 29.46 in 10.0 mi West 16.1 mph 28.8 mph 0.00 in   Overcast
5:53 PM 37.0 °F 28.5 °F 25.0 °F 62% 29.46 in 9.0 mi West 13.8 mph 34.5 mph 0.00 in Rain Light Rain
6:53 PM 34.0 °F 25.5 °F 28.0 °F 79% 29.47 in 2.5 mi West 11.5 mph 26.5 mph 0.02 in Snow Light Snow
7:00 PM 35.6 °F 27.1 °F 28.4 °F 75% 29.47 in 8.0 mi WSW 12.7 mph 20.7 mph 0.00 in Snow Light Snow
7:30 PM 33.8 °F 22.2 °F 28.4 °F 81% 29.48 in 2.5 mi WNW 20.7 mph 29.9 mph 0.01 in Snow Light Snow
7:53 PM 32.0 °F 28.7 °F 28.0 °F 85% 29.48 in 9.0 mi NNE 3.5 mph - 0.01 in   Mostly Cloudy
8:46 PM 33.8 °F 24.3 °F 28.4 °F 81% 29.51 in 2.5 mi West 13.8 mph - 0.00 in Snow Light Snow
8:53 PM 32.0 °F 28.7 °F 28.9 °F 88% 29.52 in 0.8 mi West 3.5 mph - 0.01 in Snow Light Snow
9:07 PM 32.0 °F 28.7 °F 30.2 °F 93% 29.51 in 0.8 mi Variable 3.5 mph - 0.03 in Snow Light Snow
9:22 PM 32.0 °F 24.2 °F 30.2 °F 93% 29.52 in 0.5 mi West 9.2 mph - 0.07 in Fog , Snow Snow
9:35 PM 33.8 °F 22.8 °F 32.0 °F 93% 29.53 in 0.8 mi WNW 18.4 mph 26.5 mph 0.10 in Snow Light Snow
9:44 PM 33.8 °F 20.8 °F 33.8 °F 100% 29.53 in 1.2 mi WNW 26.5 mph 32.2 mph 0.14 in Snow Light Snow
9:53 PM 34.0 °F 22.1 °F 33.1 °F 96% 29.54 in 1.0 mi WNW 21.9 mph 31.1 mph 0.16 in Snow Light Snow
10:05 PM 33.8 °F 22.2 °F 33.8 °F 100% 29.54 in 2.5 mi WNW 20.7 mph 26.5 mph 0.01 in Snow Light Snow
10:16 PM 33.8 °F 22.5 °F 32.0 °F 93% 29.54 in 1.5 mi West 19.6 mph - 0.02 in Snow Light Snow
10:39 PM 33.8 °F 26.4 °F 33.8 °F 100% 29.55 in 2.0 mi NNW 9.2 mph - 0.07 in Snow Light Snow
10:44 PM 33.8 °F 28.6 °F 33.8 °F 100% 29.55 in 3.0 mi North 5.8 mph - 0.07 in Snow Light Snow
10:53 PM 33.1 °F 23.4 °F 33.1 °F 100% 29.55 in 5.0 mi West 13.8 mph 20.7 mph 0.07 in Snow Light Snow
11:02 PM 37.4 °F 27.2 °F 30.2 °F 75% 29.56 in 8.0 mi NNW 19.6 mph 33.4 mph 0.01 in Snow Light Snow
11:53 PM 37.0 °F 26.7 °F 27.0 °F 67% 29.58 in 9.0 mi WNW 19.6 mph - 0.01 in   Overcast